Wind_Speed
109 110 107 107 107 108 109 110 111 116 117 119 117 116 111 109 106 103 101 100 99 100 101 104 108 111 112 110 101 87 79 74 68 66 68 71 74 76 79 80 80 84 88
110 110 108 108 109 112 114 117 118 119 119 117 114 111 109 105 104 103 101 100 101 104 107 111 113 115 110 101 88 82 80 82 79 73 76 78 78 77 77 79 83 83 83
109 108 109 112 115 116 118 121 121 115 113 111 108 107 105 104 103 103 102 104 108 111 114 115 114 109 97 89 87 89 92 91 87 81 76 79 82 85 81 81 81 84 86
110 112 114 117 120 121 122 118 116 114 111 110 108 104 103 101 102 103 107 112 115 116 117 115 107 96 89 88 92 96 96 92 88 84 81 78 78 82 84 85 87 88 87
118 118 120 120 119 117 117 113 111 111 111 108 104 102 101 103 108 112 116 119 119 119 115 107 97 92 92 96 97 94 90 88 85 83 82 81 79 80 82 85 87 90 95
121 120 119 116 114 114 114 112 112 110 107 104 104 107 108 112 117 120 121 124 123 117 107 100 99 100 99 98 96 91 88 85 84 83 85 85 85 86 87 88 88 89 90
116 111 108 110 112 113 111 109 105 106 107 109 112 115 119 123 125 126 124 123 116 107 104 105 106 102 98 95 95 92 91 89 86 85 85 87 87 90 90 92 94 92 92
106 106 106 107 106 104 104 105 106 109 113 117 121 123 126 129 129 128 120 114 111 110 110 107 103 101 100 98 96 96 95 94 92 90 87 86 86 86 87 90 92 95 95
104 103 102 102 102 104 107 110 114 116 120 123 127 131 131 128 123 117 115 113 114 114 110 106 106 103 100 100 97 95 94 93 92 92 93 91 91 89 89 86 86 86 86
100 101 101 104 106 110 113 118 121 123 127 129 130 130 126 121 116 115 115 115 110 108 107 106 105 104 101 99 96 93 93 94 96 98 98 95 90 88 85 83 79 80 82
101 101 106 111 114 117 120 124 126 128 128 129 125 120 117 117 118 116 110 105 106 106 108 106 105 104 101 96 95 96 96 95 92 88 86 85 85 84 83 83 79 75 72
108 108 112 116 120 123 126 128 129 127 123 117 116 117 119 117 112 107 106 105 105 105 105 105 104 102 100 100 97 93 90 87 84 82 81 79 79 79 80 80 78 77 71
115 116 118 120 123 125 123 121 119 115 116 117 117 115 108 103 105 104 103 104 103 103 103 102 102 102 99 95 91 87 84 82 81 80 79 78 76 76 77 80 78 76 75
118 120 119 118 116 113 112 113 114 114 113 109 103 100 99 99 101 102 102 103 103 103 103 102 99 96 93 91 89 87 85 83 82 81 81 79 78 76 74 75 77 76 75
113 111 108 107 109 110 110 107 104 101 97 97 99 97 98 99 100 100 101 103 103 104 102 99 97 95 93 91 89 86 85 82 81 80 79 77 74 72 72 71 71 72 72
102 106 105 102 98 96 93 92 91 92 94 95 96 97 98 97 99 100 101 101 100 98 97 97 94 93 91 90 88 87 85 83 80 78 77 76 73 69 67 66 64 65 67
89 86 86 85 85 86 87 88 88 90 93 95 94 95 96 97 99 98 95 93 93 92 92 91 90 89 87 86 84 84 84 81 79 77 75 73 70 65 60 59 59 58 58
74 74 74 77 78 79 82 85 88 90 90 90 92 94 93 92 91 90 90 89 87 87 87 86 86 84 83 81 80 80 79 78 76 74 70 67 64 59 54 51 51 54 54
64 66 68 72 75 79 81 83 85 87 88 87 86 87 87 87 86 85 84 83 82 81 80 79 80 80 79 77 76 75 75 75 73 68 65 62 60 56 51 49 48 47 50
62 66 69 71 74 77 80 81 82 81 81 82 82 82 82 81 80 78 78 77 76 77 76 76 75 74 73 72 72 72 72 71 68 64 61 58 56 53 51 48 46 44 45
60 65 69 73 75 76 76 77 78 77 77 78 78 78 78 77 75 74 73 72 72 73 73 73 72 71 69 69 69 69 69 68 65 61 58 55 53 50 48 46 44 42 41
66 68 68 69 71 72 73 73 74 74 74 74 75 75 75 74 73 73 71 70 70 71 71 70 69 69 69 68 68 67 65 63 61 59 55 51 49 48 46 45 43 42 40
61 63 65 66 67 69 70 71 72 72 72 71 71 70 71 71 71 71 70 70 69 68 68 68 67 66 66 66 66 65 62 59 57 57 55 50 47 44 44 43 44 43 40
58 60 63 66 69 70 71 72 73 72 71 70 69 68 67 68 68 69 70 69 69 68 67 67 67 66 65 64 62 60 59 56 55 54 53 51 48 45 42 41 41 42 42
58 61 64 67 70 71 72 73 72 70 69 68 67 67 67 66 66 66 67 68 67 65 64 64 64 64 64 63 62 59 55 53 52 51 50 49 48 46 44 41 40 40 41
58 60 62 64 66 67 68 68 69 69 69 68 67 66 66 66 66 65 65 65 65 65 64 63 63 63 63 62 60 58 55 52 50 47 47 47 46 45 45 43 41 39 39
Wind_Direction
293 295 296 296 296 296 297 297 297 298 299 300 300 300 299 299 298 298 298 298 298 298 299 299 300 300 301 300 297 294 291 287 283 278 273 272 272 270 270 269 264 262 259
293 294 294 294 295 296 296 296 297 297 298 297 297 297 298 298 298 298 298 298 299 299 300 301 302 301 301 298 294 292 291 290 287 281 277 274 270 266 264 263 265 262 259
291 292 293 294 295 295 294 295 297 296 295 295 296 296 297 297 297 298 298 298 299 301 301 302 302 302 299 296 294 294 295 294 290 285 280 275 271 269 263 260 258 260 261
291 292 292 292 293 294 294 294 294 294 295 296 297 296 297 297 297 297 298 299 300 301 302 302 302 300 298 296 295 297 297 294 291 287 283 277 272 267 264 259 257 255 253
290 292 291 292 292 292 293 293 294 295 296 295 296 296 297 297 298 300 300 300 302 302 303 303 301 299 298 297 298 297 294 290 288 285 283 279 274 269 265 263 258 252 252
289 290 290 291 291 292 293 294 294 295 296 296 296 297 298 299 299 300 301 301 302 303 302 301 300 300 301 300 298 296 293 290 287 284 281 279 277 273 269 264 261 258 253
289 288 289 290 291 292 293 294 294 295 296 296 297 298 299 300 301 301 302 302 303 302 301 301 300 301 301 300 300 298 296 293 289 285 282 280 277 274 271 268 266 263 258
287 288 289 291 292 292 293 294 295 295 296 297 298 298 300 301 301 302 302 300 300 301 302 302 301 301 301 302 299 298 296 294 292 290 287 284 280 275 272 269 267 265 264
287 289 290 290 291 292 293 294 294 296 297 297 299 300 299 300 300 299 300 301 301 301 301 301 301 300 299 300 298 296 293 291 291 289 288 285 283 280 278 276 274 272 267
288 289 289 290 291 291 293 294 295 295 296 297 297 298 298 297 299 299 298 300 299 299 300 300 300 301 300 299 297 295 294 293 292 291 290 289 287 285 282 279 275 272 269
287 287 288 289 291 292 293 293 294 294 295 295 296 295 296 297 297 297 297 296 297 298 298 300 300 300 299 299 298 296 294 293 292 291 289 288 288 287 285 283 281 277 272
286 288 288 289 290 291 292 293 293 293 294 294 295 295 294 295 296 295 296 297 297 297 299 299 300 299 299 299 298 297 296 295 293 292 291 289 288 288 287 284 282 280 275
287 287 287 288 290 290 290 290 291 292 293 292 292 293 292 293 295 296 296 297 298 299 300 301 301 301 300 299 299 298 297 296 296 294 293 292 290 289 287 285 283 280 278
286 287 288 288 288 289 289 290 291 290 290 290 291 293 293 294 295 296 298 300 300 301 301 302 301 302 302 302 302 301 300 300 298 297 295 293 291 288 285 282 281 280 277
286 287 287 287 287 288 288 288 288 289 290 291 292 293 294 295 297 299 300 301 302 302 302 303 303 303 302 302 302 301 300 299 298 296 294 292 289 287 284 281 278 278 276
285 285 286 286 285 285 287 287 288 289 289 291 292 294 296 298 299 300 301 301 301 301 301 301 302 302 302 302 301 301 300 299 298 297 296 294 293 290 286 282 278 275 274
282 280 280 282 282 282 284 286 288 290 291 293 295 297 298 299 299 299 300 300 300 300 301 301 301 301 301 301 300 300 300 300 299 299 297 296 294 292 288 281 278 275 271
283 283 282 283 284 285 286 288 289 291 294 296 297 298 298 298 298 299 299 299 300 300 301 301 301 301 301 301 301 301 300 300 300 299 298 297 295 293 288 282 278 275 271
284 285 286 287 288 289 291 294 295 296 296 297 298 298 298 298 298 299 299 300 300 300 301 302 302 302 302 301 301 301 301 301 301 301 299 298 296 293 289 286 280 274 270
286 287 289 292 294 296 296 297 297 298 299 298 298 298 297 298 298 299 300 300 300 300 301 302 302 302 302 303 303 304 304 303 302 301 300 297 295 293 290 287 281 276 270
294 297 298 298 299 299 299 299 299 300 299 298 298 298 300 301 301 301 300 300 301 302 302 303 303 304 305 306 306 306 305 304 303 302 300 298 295 292 289 286 282 278 271
299 299 300 299 299 301 302 301 301 301 302 301 302 302 301 301 301 301 302 303 303 303 303 305 305 306 307 307 308 307 306 304 302 301 299 296 293 291 289 286 281 277 271
300 300 301 302 302 303 305 307 307 306 305 303 303 302 302 303 303 303 304 303 303 304 304 305 306 306 307 308 308 308 307 305 303 302 300 297 293 290 287 284 281 277 271
301 303 305 308 309 310 310 311 311 310 309 309 307 306 305 305 305 305 305 305 306 306 306 307 307 308 308 308 308 307 306 305 303 301 299 298 296 292 288 283 279 276 274
309 310 312 312 312 313 313 313 313 313 313 313 312 311 309 308 308 308 308 308 308 308 307 307 307 308 309 309 309 308 306 304 303 301 299 297 296 294 290 286 280 275 273
314 313 314 313 313 314 315 315 317 317 317 316 316 314 313 312 311 310 310 310 310 309 310 310 309 309 309 310 310 309 307 305 304 301 298 296 295 292 290 287 284 278 272
Height
10571 10563 10556 10548 10541 10535 10528 10522 10515 10508 10500 10490 10481 10470 10463 10454 10445 10436 10429 10420 10412 10403 10394 10386 10377 10367 10356 10346 10336 10331 10327 10328 10332 10332 10326 10319 10313 10309 10306 10306 10310 10312 10315
10547 10540 10532 10524 10516 10510 10503 10497 10489 10482 10474 10465 10457 10445 10437 10427 10419 10410 10402 10394 10385 10377 10368 10358 10348 10336 10327 10316 10308 10303 10299 10296 10298 10304 10295 10289 10286 10286 10285 10284 10282 10285 10289
10521 10516 10509 10500 10492 10485 10477 10470 10464 10456 10446 10437 10430 10420 10412 10403 10394 10385 10376 10368 10359 10349 10339 10330 10319 10307 10297 10287 10280 10274 10268 10263 10261 10264 10266 10259 10255 10252 10258 10259 10260 10260 10260
10501 10494 10486 10476 10467 10457 10450 10443 10436 10428 10420 10413 10405 10395 10388 10379 10368 10360 10351 10342 10332 10322 10310 10299 10289 10280 10272 10264 10255 10247 10238 10229 10225 10224 10225 10225 10223 10220 10219 10225 10230 10231 10236
10476 10469 10460 10451 10441 10430 10422 10417 10410 10401 10392 10385 10378 10370 10362 10352 10340 10331 10322 10310 10300 10290 10280 10268 10259 10252 10246 10237 10228 10219 10211 10203 10198 10194 10190 10187 10187 10188 10187 10187 10193 10198 10198
10449 10441 10433 10424 10413 10403 10396 10390 10382 10373 10364 10357 10349 10340 10334 10326 10313 10302 10292 10279 10269 10259 10247 10238 10230 10222 10213 10204 10194 10187 10182 10177 10171 10166 10161 10158 10155 10152 10153 10153 10155 10160 10170
10423 10415 10406 10397 10387 10376 10368 10361 10354 10345 10336 10328 10320 10312 10302 10293 10280 10267 10259 10247 10236 10228 10219 10210 10201 10191 10183 10176 10163 10156 10147 10140 10137 10135 10132 10124 10124 10119 10121 10121 10118 10125 10131
10397 10388 10380 10371 10362 10352 10344 10336 10328 10319 10309 10299 10289 10281 10271 10260 10249 10234 10226 10215 10207 10200 10190 10180 10170 10161 10153 10147 10137 10130 10119 10110 10102 10096 10093 10090 10088 10087 10085 10087 10085 10089 10094
10369 10363 10353 10345 10337 10328 10319 10311 10301 10292 10282 10272 10260 10248 10238 10230 10219 10206 10195 10185 10175 10168 10157 10148 10140 10132 10126 10121 10113 10105 10094 10084 10075 10066 10060 10056 10051 10049 10046 10052 10051 10053 10064
10342 10336 10329 10320 10312 10303 10294 10283 10273 10265 10254 10243 10231 10220 10208 10198 10188 10178 10170 10158 10145 10137 10128 10119 10111 10103 10095 10088 10081 10073 10063 10056 10047 10035 10024 10017 10014 10011 10008 10009 10017 10020 10022
10319 10314 10304 10293 10285 10275 10266 10254 10246 10235 10227 10214 10202 10192 10181 10171 10160 10151 10141 10131 10121 10111 10101 10091 10082 10073 10065 10057 10050 10042 10033 10024 10017 10009 10001 9992 9985 9982 9976 9971 9974 9982 9990
10290 10288 10278 10268 10257 10245 10234 10225 10214 10203 10193 10185 10174 10166 10154 10144 10133 10123 10114 10105 10095 10085 10075 10065 10056 10045 10037 10028 10019 10010 10001 9993 9988 9980 9973 9969 9962 9955 9950 9944 9944 9944 9952
10262 10256 10249 10239 10228 10217 10206 10195 10184 10175 10165 10156 10147 10138 10127 10117 10108 10097 10087 10078 10068 10059 10049 10038 10028 10018 10006 9998 9991 9984 9975 9967 9959 9952 9946 9941 9938 9934 9926 9918 9915 9916 9914
10233 10223 10215 10206 10197 10186 10177 10167 10158 10149 10139 10129 10119 10111 10102 10092 10082 10072 10061 10051 10040 10029 10020 10009 9999 9989 9979 9969 9959 9952 9945 9939 9933 9925 9917 9913 9909 9904 9901 9896 9889 9887 9886
10201 10192 10184 10175 10167 10159 10151 10141 10131 10122 10113 10103 10094 10086 10077 10067 10058 10048 10037 10025 10014 10001 9989 9979 9969 9959 9949 9940 9931 9925 9918 9913 9907 9900 9893 9887 9884 9879 9873 9870 9867 9862 9860
10173 10163 10156 10149 10140 10132 10124 10116 10108 10099 10091 10082 10073 10063 10054 10043 10033 10022 10012 10001 9989 9978 9967 9956 9946 9936 9927 9917 9907 9896 9889 9885 9881 9873 9865 9859 9855 9852 9847 9843 9842 9840 9836
10146 10139 10131 10125 10118 10111 10104 10096 10088 10078 10069 10060 10051 10041 10031 10021 10009 9998 9988 9978 9967 9957 9946 9936 9925 9915 9905 9896 9886 9877 9866 9860 9853 9847 9840 9832 9826 9825 9824 9820 9817 9817 9818
10123 10117 10111 10105 10098 10091 10083 10075 10066 10057 10048 10038 10027 10017 10008 9997 9986 9975 9965 9956 9947 9936 9925 9913 9903 9894 9885 9875 9866 9855 9845 9837 9831 9823 9816 9810 9803 9801 9799 9798 9797 9795 9796
10104 10098 10092 10086 10079 10071 10062 10053 10045 10035 10025 10016 10005 9993 9984 9976 9965 9955 9944 9933 9923 9913 9904 9894 9884 9873 9863 9854 9845 9835 9824 9814 9806 9801 9794 9789 9783 9779 9779 9777 9777 9778 9777
10087 10081 10075 10068 10060 10052 10042 10032 10022 10012 10002 9992 9982 9972 9961 9953 9944 9935 9925 9914 9904 9892 9882 9873 9864 9854 9845 9834 9824 9814 9803 9793 9786 9781 9775 9770 9766 9762 9759 9759 9758 9760 9760
10071 10065 10057 10049 10040 10031 10021 10011 10001 9990 9980 9970 9959 9948 9937 9928 9920 9912 9903 9894 9883 9872 9862 9853 9843 9834 9824 9814 9804 9794 9783 9773 9764 9760 9756 9752 9748 9745 9744 9742 9741 9742 9744
10054 10047 10040 10031 10022 10011 10001 9991 9980 9969 9958 9947 9937 9927 9917 9907 9897 9888 9880 9871 9862 9852 9841 9832 9823 9813 9803 9794 9785 9776 9766 9756 9748 9741 9739 9736 9732 9729 9727 9725 9724 9724 9726
10038 10031 10023 10013 10003 9993 9983 9971 9959 9948 9938 9927 9917 9907 9897 9888 9878 9868 9859 9851 9842 9833 9823 9813 9804 9796 9787 9777 9767 9756 9747 9740 9732 9724 9719 9718 9716 9714 9712 9710 9708 9707 9710
10023 10015 10006 9996 9986 9975 9964 9952 9941 9929 9918 9908 9897 9887 9876 9867 9858 9848 9839 9830 9822 9813 9804 9794 9783 9775 9767 9760 9751 9741 9732 9724 9717 9710 9704 9699 9698 9697 9696 9695 9693 9692 9693
10008 9999 9990 9980 9970 9959 9948 9936 9924 9912 9900 9889 9879 9868 9858 9848 9839 9829 9820 9811 9802 9794 9787 9777 9767 9757 9748 9740 9732 9724 9717 9710 9702 9695 9689 9685 9682 9679 9678 9678 9678 9678 9678
9994 9985 9977 9966 9955 9944 9933 9920 9908 9895 9884 9872 9862 9851 9841 9831 9822 9812 9802 9793 9784 9775 9767 9759 9749 9740 9731 9722 9714 9706 9699 9692 9686 9681 9676 9671 9668 9665 9663 9662 9662 9662 9662